Wind_Speed
18 18 18 19 20 21 21 21 21 20 19 19 19 18 18 18 19 20 19 19 19 20 21 22 28 33 32 30 28 22 16 14 14 14 14 14 13 12 12 12 12 12 14 14 15 16 17 17 17 17 17 16 16 14 12 11 11 11 12 11 10 9
18 19 19 20 20 20 21 21 21 21 20 19 18 17 17 19 21 21 20 19 17 17 18 21 29 31 26 25 22 17 13 13 13 14 14 13 13 12 12 12 12 13 15 15 16 16 17 17 17 17 18 17 16 15 13 13 12 13 13 12 11 11
18 19 19 19 19 19 21 22 22 21 21 19 17 17 18 21 22 20 19 17 15 14 16 21 26 24 20 18 16 13 13 13 13 13 13 14 14 13 13 13 13 14 16 16 16 17 17 17 17 17 18 18 17 16 14 14 14 14 14 13 12 12
18 19 19 19 19 20 20 21 21 21 19 17 16 16 18 21 20 17 15 13 13 14 15 17 18 17 16 13 11 11 12 12 12 12 13 14 14 15 14 13 14 15 16 16 16 17 17 17 17 18 18 18 18 16 14 15 15 16 15 14 13 13
18 19 19 19 19 18 18 19 19 17 15 13 12 13 16 18 16 14 11 9 10 12 10 10 11 13 12 9 8 9 11 11 12 13 13 14 14 14 14 13 14 14 15 15 16 17 17 17 17 18 18 18 19 17 14 15 16 17 17 16 15 15
19 20 20 19 18 17 18 17 14 12 12 11 9 10 13 14 14 12 9 8 8 7 6 6 7 7 7 6 7 9 11 12 14 14 14 13 11 10 11 11 12 13 13 14 16 17 18 17 17 18 18 19 19 18 15 15 17 18 18 17 17 16
20 20 20 20 18 18 18 14 10 10 11 9 8 9 10 10 10 9 7 7 7 6 5 5 5 5 5 7 9 10 11 12 13 13 13 12 11 9 8 8 9 10 11 13 15 17 17 17 17 17 18 19 19 18 17 16 17 19 18 17 18 18
19 19 20 20 19 18 14 11 9 9 9 7 7 8 9 8 7 7 7 8 8 7 6 6 6 6 7 9 9 9 10 10 10 11 12 12 11 10 9 8 9 8 9 12 15 17 17 16 16 17 17 17 18 19 18 17 17 17 17 18 19 19
18 19 20 20 19 16 12 11 9 9 8 8 8 10 10 8 5 5 6 8 9 8 6 6 6 6 7 7 6 6 7 7 8 9 10 10 9 9 9 10 11 10 10 11 13 16 16 16 16 15 15 15 17 17 17 18 17 17 18 19 20 20
18 18 19 19 17 13 12 11 9 10 10 10 10 8 7 5 4 5 6 6 5 5 4 4 4 4 5 5 4 5 5 5 6 7 8 7 7 7 8 9 10 10 10 11 11 13 15 17 16 14 13 14 15 15 16 16 17 18 19 20 20 19
15 16 16 15 13 11 12 12 11 11 10 8 7 6 5 7 8 7 4 1 0 1 2 3 3 4 5 5 5 5 5 4 4 5 5 5 5 6 6 7 8 8 9 11 11 12 14 16 15 13 13 15 15 16 16 15 16 17 17 17 18 18
15 15 15 13 13 12 12 12 11 10 8 6 7 8 9 9 7 5 2 1 1 1 2 3 3 5 5 5 4 5 4 4 3 3 4 4 4 5 5 5 5 5 8 10 10 11 13 15 14 12 12 14 14 15 16 15 14 14 13 13 14 15
15 15 15 14 12 12 12 13 12 9 7 7 8 8 7 6 4 3 2 1 2 3 2 3 5 5 5 4 3 4 3 3 2 2 3 4 4 5 5 4 4 4 6 8 9 10 11 12 13 12 11 12 13 13 14 13 12 12 10 10 11 12
14 14 13 11 11 11 12 13 9 6 6 7 7 6 5 4 4 4 3 3 4 4 3 3 5 5 4 3 3 2 2 2 2 1 2 3 4 5 5 4 4 4 5 7 8 8 9 10 11 11 11 10 12 12 10 9 10 10 9 8 8 9
12 13 11 9 10 11 11 9 5 4 6 7 5 4 4 5 6 6 5 5 5 4 2 4 5 5 4 4 4 3 2 2 2 1 2 3 4 4 4 4 4 4 4 5 5 6 7 9 10 10 10 10 10 10 9 8 8 7 7 6 6 7
11 12 10 9 9 10 9 7 4 4 6 6 6 6 8 8 7 7 6 5 5 4 3 5 6 5 4 4 4 3 2 1 1 1 2 2 3 3 3 3 4 4 4 3 4 5 5 7 8 9 9 9 8 7 7 8 7 6 6 5 5 7
11 10 9 8 9 9 8 6 4 3 5 8 9 9 9 8 8 8 7 6 5 4 4 5 5 5 5 5 4 4 3 1 1 1 2 2 3 3 3 3 4 4 5 4 3 1 3 4 5 8 9 9 8 6 5 8 8 7 5 5 6 7
11 9 8 7 7 8 6 5 4 4 5 6 7 8 8 9 10 8 6 5 4 3 3 3 4 5 6 6 5 4 3 2 1 2 2 2 3 3 3 4 4 4 5 4 1 2 2 4 5 7 7 6 7 7 6 8 9 7 5 5 6 7
12 10 9 6 5 6 6 5 5 5 5 5 7 9 10 11 9 6 4 3 3 3 4 5 5 5 6 6 6 5 4 3 2 2 2 2 2 2 2 4 4 4 4 4 2 2 3 5 5 6 5 4 6 8 7 7 9 8 5 4 6 7
13 12 11 8 6 8 8 7 7 8 8 9 10 12 11 10 7 5 5 5 4 4 4 5 5 5 6 6 6 6 5 3 2 2 2 2 2 2 2 3 4 4 5 4 3 3 4 5 5 5 5 5 6 7 6 6 7 7 4 2 5 6
15 13 12 10 9 9 9 9 9 9 10 11 12 12 12 10 8 7 7 7 7 6 6 6 6 6 6 6 6 6 4 3 2 2 2 2 2 2 2 3 4 4 5 5 5 4 4 5 6 5 5 6 6 6 6 8 7 7 5 3 5 5
16 15 12 11 11 10 10 10 11 12 12 13 15 15 13 11 10 9 9 9 8 7 7 7 7 6 6 6 6 5 4 3 3 3 2 2 2 2 3 3 4 5 5 5 5 5 4 6 7 6 6 7 8 6 7 9 8 7 6 5 6 6
14 14 13 12 12 11 11 12 13 14 14 15 17 16 13 12 11 10 10 10 9 8 7 7 7 6 6 5 5 5 4 3 3 2 2 2 3 3 3 3 4 4 5 5 5 5 5 6 8 7 7 9 9 8 8 8 7 6 5 4 5 5
14 14 14 13 12 12 13 14 14 15 15 16 18 15 13 14 13 12 12 11 10 8 7 7 7 6 6 5 4 4 4 3 2 2 2 2 2 3 3 4 4 4 5 6 6 6 5 6 8 8 8 8 9 9 8 8 8 7 5 4 4 4
14 14 14 12 11 13 15 15 14 14 14 15 16 16 16 16 15 14 13 12 11 9 7 6 6 6 5 5 4 3 3 3 3 3 3 2 3 3 3 4 5 5 6 6 7 7 7 7 8 9 9 9 9 9 9 10 10 9 7 6 6 6
14 14 15 13 12 13 13 12 12 13 14 14 16 19 19 17 16 14 13 12 11 9 7 5 5 5 4 4 4 3 3 3 4 5 5 5 6 5 5 5 5 6 7 8 8 8 8 8 9 9 9 10 10 10 10 10 10 10 10 9 8 8
14 14 14 13 13 13 11 9 10 12 13 15 17 19 19 17 15 13 12 11 9 8 6 5 4 3 3 3 4 4 4 4 4 5 6 7 8 9 9 8 7 8 9 9 9 9 9 9 9 9 10 10 10 10 11 10 10 10 11 11 10 10
13 11 10 11 12 12 10 10 12 12 13 13 13 15 16 15 13 12 10 9 8 7 6 5 4 3 3 4 5 5 6 6 6 6 7 8 9 10 11 11 10 11 11 10 10 11 10 10 10 10 10 11 11 11 11 10 10 11 12 12 12 12
11 10 9 8 8 9 10 12 13 13 13 12 12 14 15 14 11 10 9 9 8 7 5 3 3 4 5 5 6 6 7 7 7 8 9 10 10 11 11 12 12 12 13 12 12 12 11 11 11 11 11 12 12 11 11 11 11 12 12 12 12 12
10 8 7 6 4 4 6 8 11 12 11 9 10 12 13 11 9 8 8 9 8 7 5 3 4 5 5 6 7 8 9 9 8 8 9 10 11 12 13 12 12 12 13 14 14 13 13 12 12 12 12 12 12 12 11 11 12 12 12 11 11 11
8 7 7 5 3 2 5 6 6 7 8 7 8 9 10 9 8 7 8 8 8 7 5 4 5 5 5 6 7 7 8 8 8 7 8 8 9 11 12 12 12 12 12 13 14 14 14 13 12 12 12 12 12 11 11 11 12 13 12 11 11 11
8 8 7 6 4 5 7 8 5 6 8 6 6 6 8 8 7 6 6 7 8 7 6 6 5 4 4 5 6 6 6 6 6 6 6 5 6 7 8 9 10 10 11 11 13 14 14 14 13 13 13 12 12 12 12 13 13 13 13 11 10 10
7 6 6 5 6 7 7 7 6 7 9 9 8 8 9 9 8 7 6 7 8 8 8 8 6 4 4 4 5 6 6 6 5 5 5 5 4 4 5 6 7 8 8 10 11 12 14 14 14 14 14 14 14 14 13 13 13 13 11 9 9 10
5 4 5 5 4 5 5 5 6 7 9 11 13 13 12 11 10 9 7 7 8 9 9 8 6 5 4 5 5 6 6 5 5 6 6 5 5 4 4 5 5 5 6 7 9 11 13 14 15 16 16 16 16 15 14 14 13 13 11 9 10 11
6 5 5 4 3 3 4 4 5 6 9 11 14 14 13 12 11 10 8 7 8 9 9 9 8 6 5 5 5 6 5 5 5 6 6 6 5 5 5 6 6 6 6 6 8 10 11 13 15 16 17 17 17 16 16 15 14 13 10 10 11 11
10 8 7 4 4 4 4 4 5 6 8 11 12 13 12 11 10 10 9 8 8 9 10 10 10 8 6 6 6 6 6 6 5 5 6 6 5 5 6 6 7 7 7 7 8 9 10 12 14 15 15 15 15 15 14 13 12 11 10 9 9 8
8 8 7 5 4 4 5 6 6 6 7 9 11 13 13 11 10 10 10 10 10 10 11 12 12 10 8 7 7 7 6 6 5 5 6 5 6 6 6 7 7 8 8 8 8 9 10 11 12 12 12 12 12 11 11 10 10 9 9 8 8 7
Wind_Direction
284 280 280 282 284 283 282 283 282 275 270 268 270 273 270 265 264 266 266 267 271 277 283 287 282 275 269 264 263 264 262 261 264 266 268 268 268 270 273 274 272 269 267 264 261 259 258 258 257 255 254 250 246 244 240 235 232 236 243 245 244 247
283 281 283 285 283 282 282 284 280 275 274 272 272 271 266 260 259 261 262 267 274 280 282 280 279 277 270 264 260 256 257 263 264 262 261 261 262 263 263 264 264 263 263 263 263 261 260 260 259 258 256 254 250 245 239 235 234 234 238 242 246 248
280 281 284 283 281 282 284 285 280 276 277 276 274 271 265 258 256 260 268 276 281 281 279 280 281 273 260 259 257 257 267 271 270 269 270 270 270 268 263 258 256 256 258 261 263 263 263 262 261 260 259 257 252 247 239 234 235 237 238 239 243 247
281 282 283 281 281 284 285 285 282 280 280 278 274 268 259 254 255 264 277 285 288 287 284 283 277 259 250 255 259 268 278 278 281 283 283 285 284 279 272 266 259 255 254 256 259 263 264 264 263 261 261 259 253 249 240 233 235 238 240 239 241 245
284 284 285 285 285 286 285 285 285 286 285 280 272 259 248 246 252 265 276 280 287 290 286 280 267 253 250 252 264 279 284 285 286 283 285 290 290 283 274 271 266 259 256 255 257 259 260 262 262 261 261 258 254 251 241 231 233 237 241 241 242 245
292 289 289 287 286 287 288 289 293 292 285 276 263 252 245 244 255 265 266 268 282 288 284 286 274 260 255 263 284 293 293 291 286 282 284 288 294 289 273 266 262 258 259 260 259 258 257 257 257 258 257 255 253 251 240 229 230 233 238 241 243 246
292 288 289 287 286 290 291 295 303 291 279 269 254 252 247 250 266 269 259 260 277 292 298 303 289 278 286 296 299 298 297 293 289 285 282 286 295 293 273 259 250 250 255 258 258 255 253 252 252 252 252 253 254 253 242 231 233 235 236 240 243 246
285 286 288 287 287 292 291 291 294 279 269 264 249 250 251 262 275 265 256 269 290 297 297 295 287 290 299 302 300 296 293 290 291 286 280 284 290 287 275 261 249 245 248 251 252 249 248 245 244 246 247 250 253 254 243 228 232 240 241 241 243 246
285 286 287 287 288 289 286 284 281 269 267 267 264 265 263 264 265 259 271 291 299 298 293 291 292 299 304 305 304 298 293 290 288 280 277 278 282 281 272 263 254 249 250 251 248 243 242 238 236 238 240 247 249 252 247 229 227 237 239 240 242 245
283 283 282 283 286 286 284 286 282 275 277 278 277 271 258 251 268 286 296 299 298 301 307 305 308 307 300 298 296 294 292 288 283 277 275 274 276 274 265 260 257 253 252 251 247 241 239 237 237 234 235 244 243 245 250 236 227 229 230 234 237 240
276 276 278 282 285 284 282 283 283 281 283 284 272 259 263 275 282 287 289 289 1 328 325 323 315 296 285 282 282 277 273 275 285 286 283 282 276 264 262 263 263 257 251 249 248 246 241 236 235 233 235 241 240 242 245 237 229 229 231 232 232 234
267 266 272 281 284 281 278 274 273 276 281 276 257 261 276 278 273 262 239 104 74 317 292 284 268 267 269 269 272 267 261 267 284 290 286 285 272 260 264 270 270 262 252 252 250 248 245 236 231 230 234 235 237 241 241 240 236 232 237 239 237 238
261 262 268 278 283 278 270 265 264 270 273 264 261 268 267 261 252 235 239 327 302 278 259 246 243 254 262 261 270 270 266 280 296 309 300 290 279 267 260 251 254 256 254 256 252 251 251 241 229 227 230 231 234 240 240 244 244 237 243 248 248 247
262 267 270 275 280 276 267 263 262 268 275 279 279 274 260 254 246 236 259 276 257 247 230 231 249 265 279 290 310 316 295 304 336 353 312 292 284 269 260 249 242 252 257 258 257 259 257 243 233 233 235 236 234 233 234 239 240 238 243 249 250 249
258 265 271 277 280 275 268 265 264 278 295 300 291 279 285 283 266 259 265 258 245 242 227 240 259 275 293 305 324 337 340 358 21 357 293 278 270 261 265 266 258 261 263 261 266 271 257 235 237 242 237 236 230 222 225 232 229 223 224 231 240 244
254 261 269 280 281 272 269 272 269 287 296 284 267 272 284 279 270 270 264 253 248 243 235 250 265 277 285 288 298 305 313 350 6 336 306 288 276 269 280 280 264 262 269 283 295 280 246 222 233 241 235 233 223 212 228 237 229 222 223 231 239 242
253 259 264 271 276 270 271 276 255 260 277 262 259 268 271 269 271 270 262 255 248 236 234 250 267 277 277 277 278 280 277 268 286 302 309 306 299 295 303 300 275 266 275 298 319 255 211 237 236 229 232 229 213 208 243 253 245 244 241 236 242 247
253 257 255 258 272 267 261 262 234 240 264 250 252 266 268 271 274 270 263 259 259 260 264 270 281 283 283 286 284 281 275 259 252 256 269 298 311 310 304 300 297 292 289 295 299 155 206 293 266 234 233 218 214 227 256 264 252 247 247 239 246 255
255 257 253 254 263 247 244 256 239 236 246 241 259 276 278 277 279 284 289 294 300 304 302 302 299 292 292 296 294 289 286 275 249 246 262 298 322 325 304 295 304 317 310 299 260 210 248 283 274 253 243 214 231 245 250 255 240 234 247 247 251 256
251 256 256 258 259 243 245 257 247 240 243 251 269 282 283 285 293 303 306 308 312 310 306 304 300 299 300 300 303 304 302 295 271 269 287 297 316 320 304 293 305 324 322 309 285 266 257 262 260 251 243 232 247 260 259 257 242 237 254 276 258 256
244 253 261 261 264 258 255 260 259 256 255 260 273 284 288 293 298 300 299 298 296 296 297 298 298 302 309 309 311 313 316 318 311 302 290 290 308 306 301 299 303 318 327 318 300 291 270 264 267 257 259 258 254 258 257 260 260 252 255 265 262 256
246 251 263 265 267 267 263 263 264 267 268 270 276 284 290 294 296 295 293 290 287 290 292 297 302 304 306 305 308 314 323 335 332 322 313 307 302 294 293 297 303 313 323 319 298 289 278 279 282 268 260 264 263 255 244 253 262 256 253 264 271 270
253 250 260 264 267 267 265 262 261 263 266 271 277 284 289 288 287 285 283 283 284 288 291 293 296 298 299 297 300 310 318 329 333 333 340 322 302 296 294 292 298 304 310 306 292 286 280 281 285 273 255 259 268 263 248 252 260 259 264 277 281 281
259 252 254 258 265 268 268 266 264 265 268 273 274 275 277 275 276 279 282 286 291 293 296 297 299 300 300 298 298 299 299 304 313 323 334 325 306 301 304 302 298 293 293 294 292 291 286 277 281 280 271 268 273 272 265 268 272 272 275 278 280 277
257 246 243 250 263 267 270 274 276 277 280 279 270 264 268 270 273 278 284 290 295 298 302 306 312 317 314 311 307 298 295 293 287 286 285 287 294 303 316 316 310 302 293 290 290 290 286 278 278 281 280 277 275 273 271 271 274 276 272 273 278 272
253 243 238 241 251 261 270 281 286 284 283 275 265 265 268 269 270 276 283 288 290 293 296 297 304 319 328 330 331 327 315 303 292 287 280 274 275 283 297 308 313 312 301 294 290 287 284 278 276 275 274 272 271 271 268 266 267 268 268 271 273 270
257 252 248 245 248 257 265 274 275 272 270 265 262 266 266 265 268 273 277 279 279 281 279 272 274 302 340 344 343 340 329 317 305 297 288 281 276 274 277 284 298 304 300 297 292 285 284 279 273 268 262 263 267 268 266 264 264 262 264 268 268 269
262 266 270 269 264 262 260 258 254 253 258 261 261 262 261 261 264 268 271 271 269 268 264 266 279 310 340 338 331 323 315 310 304 298 293 288 282 277 273 274 283 291 291 294 291 286 284 280 273 266 259 258 261 262 260 260 260 258 257 258 260 265
258 269 275 281 279 270 265 260 258 261 266 267 263 259 256 256 256 260 264 265 263 259 256 271 301 319 325 318 309 300 293 290 288 287 286 284 283 281 277 274 276 281 285 287 287 284 282 278 273 267 262 259 259 258 256 255 256 255 253 253 258 262
245 255 258 259 268 278 278 272 273 274 269 267 271 267 260 258 259 260 262 262 259 256 259 279 300 306 307 304 299 290 282 277 273 271 271 273 276 277 277 275 274 276 279 280 280 279 276 273 270 265 262 261 259 257 252 249 250 249 250 254 259 259
237 243 240 228 219 311 324 308 288 254 240 263 285 277 265 262 263 260 261 261 260 262 269 282 287 286 296 309 311 304 294 286 279 272 266 265 267 270 273 275 276 276 276 275 274 273 271 268 265 262 262 260 256 252 247 243 243 245 250 255 256 252
245 237 228 221 241 310 325 321 296 219 224 267 289 269 256 256 256 252 256 264 271 276 277 279 277 275 294 320 328 332 327 313 296 283 275 271 268 267 268 271 275 279 279 276 272 269 267 264 258 256 256 253 248 245 244 243 243 246 250 251 249 247
246 233 232 250 285 307 316 317 297 256 253 267 271 265 254 245 243 243 251 268 278 280 281 282 273 265 288 314 330 342 344 330 308 289 280 276 273 271 271 269 270 274 275 273 270 265 262 256 252 250 248 246 244 242 241 240 241 242 242 243 241 240
247 247 249 263 287 301 305 306 291 272 266 260 260 265 256 240 236 239 245 265 279 281 284 284 268 257 279 305 323 336 338 327 308 291 282 278 275 274 277 278 276 274 270 266 264 260 256 253 249 247 245 243 243 241 237 235 236 237 233 232 234 236
230 233 240 252 267 282 288 291 286 274 266 259 258 259 254 246 242 242 247 258 274 283 285 280 264 256 272 291 308 321 323 319 305 291 286 281 278 273 273 280 283 283 277 265 260 255 250 247 243 241 240 239 239 237 234 231 233 235 229 226 233 238
220 223 237 247 251 262 269 276 287 284 273 267 260 253 249 249 250 253 260 262 268 279 282 276 265 260 270 281 295 307 308 307 302 295 291 287 285 280 275 275 277 280 278 269 261 253 243 238 236 236 235 234 235 235 233 232 232 232 227 226 233 238
222 224 232 235 237 253 264 269 278 291 297 288 268 251 242 244 253 262 268 267 267 274 280 279 270 265 271 278 287 295 297 299 298 295 296 296 295 292 285 278 275 275 274 270 265 257 247 240 234 229 227 227 229 230 230 230 232 231 228 228 230 231
Height
5826 5825 5826 5826 5825 5824 5823 5823 5821 5820 5820 5820 5821 5822 5822 5823 5823 5822 5821 5821 5821 5822 5824 5824 5824 5824 5825 5826 5827 5828 5829 5830 5830 5830 5829 5829 5829 5829 5830 5830 5831 5831 5831 5831 5831 5830 5830 5829 5829 5830 5830 5832 5833 5834 5836 5837 5838 5838 5838 5839 5840 5841
5823 5822 5823 5823 5822 5821 5821 5819 5817 5817 5817 5818 5820 5821 5822 5821 5820 5819 5819 5819 5820 5822 5822 5822 5821 5822 5824 5825 5826 5827 5828 5828 5828 5828 5827 5827 5827 5827 5827 5828 5829 5829 5829 5829 5829 5829 5829 5828 5828 5828 5829 5830 5831 5833 5835 5836 5836 5837 5837 5838 5839 5840
5820 5820 5821 5820 5819 5819 5818 5816 5814 5814 5815 5817 5820 5821 5820 5819 5818 5817 5818 5819 5820 5821 5820 5820 5820 5821 5823 5824 5825 5826 5827 5827 5827 5826 5826 5825 5825 5825 5826 5826 5827 5827 5827 5828 5828 5828 5827 5827 5827 5827 5827 5828 5829 5831 5833 5834 5834 5835 5835 5837 5837 5838
5818 5818 5819 5818 5817 5816 5815 5813 5812 5812 5814 5817 5819 5818 5817 5816 5816 5817 5818 5818 5819 5818 5818 5818 5818 5820 5822 5823 5825 5825 5826 5826 5826 5825 5825 5825 5825 5824 5824 5825 5825 5825 5825 5825 5825 5826 5826 5826 5826 5826 5826 5827 5828 5829 5831 5832 5832 5833 5834 5835 5836 5837
5816 5816 5816 5815 5814 5813 5812 5811 5811 5812 5814 5815 5815 5814 5813 5814 5814 5815 5817 5817 5817 5816 5816 5817 5818 5820 5821 5823 5823 5824 5824 5824 5824 5824 5823 5823 5823 5823 5822 5823 5823 5823 5823 5822 5823 5824 5824 5825 5824 5825 5825 5826 5826 5826 5828 5830 5830 5831 5832 5833 5834 5835
5815 5814 5814 5813 5812 5811 5810 5810 5811 5812 5812 5812 5812 5811 5812 5813 5813 5814 5815 5815 5816 5816 5816 5817 5818 5819 5821 5822 5822 5823 5823 5823 5822 5822 5822 5822 5821 5821 5821 5821 5821 5821 5821 5821 5821 5822 5822 5823 5822 5823 5823 5823 5823 5823 5826 5827 5828 5829 5830 5832 5833 5834
5813 5812 5812 5811 5810 5810 5809 5810 5811 5810 5809 5809 5810 5810 5811 5812 5813 5813 5813 5814 5815 5815 5815 5816 5817 5818 5820 5821 5821 5821 5821 5821 5820 5820 5820 5820 5819 5819 5819 5819 5819 5819 5819 5819 5820 5820 5820 5820 5820 5820 5820 5820 5820 5821 5824 5826 5826 5827 5829 5831 5831 5832
5810 5809 5809 5809 5809 5809 5808 5809 5810 5809 5808 5808 5808 5809 5810 5811 5811 5811 5812 5813 5814 5814 5815 5815 5816 5817 5818 5819 5819 5819 5819 5819 5818 5818 5818 5818 5818 5817 5817 5817 5817 5816 5817 5817 5817 5818 5818 5818 5818 5817 5817 5818 5819 5819 5822 5823 5824 5826 5828 5829 5830 5830
5808 5807 5807 5807 5808 5808 5807 5808 5808 5808 5808 5807 5807 5808 5809 5810 5810 5810 5811 5811 5812 5812 5813 5814 5814 5815 5816 5816 5817 5817 5817 5817 5817 5817 5817 5817 5816 5815 5815 5815 5814 5814 5814 5815 5815 5816 5816 5815 5814 5814 5815 5816 5816 5817 5818 5820 5822 5824 5826 5826 5827 5828
5806 5806 5805 5806 5806 5806 5806 5806 5806 5807 5807 5807 5807 5807 5807 5808 5809 5809 5810 5810 5811 5811 5811 5812 5813 5813 5814 5814 5815 5815 5815 5815 5816 5815 5815 5814 5814 5813 5813 5812 5812 5812 5812 5813 5813 5814 5813 5813 5813 5813 5814 5815 5815 5816 5818 5820 5821 5821 5822 5823 5824 5825
5805 5804 5804 5804 5803 5803 5804 5804 5804 5805 5806 5806 5806 5806 5806 5807 5808 5808 5809 5809 5810 5810 5810 5811 5811 5812 5812 5812 5813 5813 5814 5814 5814 5814 5813 5812 5812 5812 5812 5810 5810 5810 5811 5811 5812 5811 5810 5810 5812 5813 5814 5813 5814 5816 5817 5818 5817 5818 5820 5821 5822 5822
5804 5803 5802 5802 5801 5800 5801 5802 5802 5804 5805 5805 5805 5805 5805 5806 5806 5807 5807 5808 5809 5809 5809 5810 5810 5810 5811 5811 5812 5812 5813 5813 5813 5812 5811 5811 5811 5810 5810 5809 5809 5809 5809 5810 5810 5809 5809 5809 5810 5813 5813 5812 5813 5814 5815 5815 5815 5817 5819 5819 5820 5821
5801 5801 5801 5800 5799 5799 5800 5801 5801 5802 5803 5803 5804 5804 5805 5805 5805 5805 5806 5807 5807 5807 5808 5808 5809 5809 5809 5810 5811 5811 5812 5812 5811 5810 5810 5809 5809 5809 5808 5808 5808 5808 5808 5808 5808 5808 5808 5808 5809 5810 5812 5812 5812 5812 5813 5814 5815 5816 5817 5818 5819 5820
5798 5798 5798 5798 5797 5797 5799 5799 5799 5800 5801 5801 5802 5803 5803 5804 5804 5804 5805 5805 5806 5806 5807 5807 5806 5807 5808 5808 5809 5810 5810 5810 5810 5809 5808 5808 5808 5808 5807 5807 5806 5807 5806 5806 5806 5807 5807 5808 5808 5808 5810 5811 5811 5812 5813 5814 5814 5815 5816 5817 5818 5819
5796 5796 5796 5796 5794 5795 5797 5797 5797 5798 5798 5799 5800 5802 5803 5804 5804 5804 5804 5804 5805 5805 5805 5805 5805 5806 5807 5807 5808 5808 5809 5809 5809 5808 5808 5807 5807 5807 5806 5806 5805 5805 5805 5805 5806 5806 5806 5807 5807 5807 5808 5810 5810 5811 5812 5813 5813 5814 5815 5816 5817 5817
5794 5794 5795 5793 5792 5793 5795 5796 5796 5796 5797 5798 5800 5801 5802 5803 5803 5803 5803 5803 5804 5804 5804 5803 5803 5805 5806 5806 5807 5807 5807 5807 5807 5807 5806 5806 5806 5805 5805 5804 5804 5805 5805 5805 5805 5805 5805 5805 5806 5807 5807 5809 5810 5810 5811 5811 5812 5813 5813 5814 5815 5815
5792 5793 5794 5793 5791 5792 5793 5794 5795 5796 5797 5798 5800 5801 5802 5802 5803 5803 5803 5803 5804 5804 5804 5803 5804 5805 5805 5806 5806 5806 5806 5806 5805 5805 5805 5804 5804 5804 5804 5803 5803 5804 5804 5804 5804 5804 5804 5804 5805 5807 5808 5809 5810 5810 5811 5811 5811 5810 5810 5812 5813 5813
5791 5792 5793 5792 5791 5792 5793 5794 5794 5795 5797 5798 5800 5801 5801 5802 5802 5802 5802 5803 5803 5803 5803 5803 5804 5805 5805 5806 5805 5805 5805 5804 5804 5804 5803 5803 5803 5803 5803 5802 5803 5803 5804 5804 5804 5804 5804 5803 5804 5805 5807 5809 5810 5810 5810 5810 5809 5808 5808 5810 5811 5812
5789 5790 5791 5792 5792 5793 5794 5794 5794 5795 5797 5798 5799 5800 5801 5801 5801 5801 5802 5802 5802 5802 5802 5803 5804 5804 5805 5805 5805 5804 5804 5803 5803 5803 5802 5802 5802 5802 5802 5802 5802 5802 5803 5804 5804 5804 5804 5804 5803 5804 5806 5808 5810 5810 5809 5808 5807 5807 5808 5810 5810 5810
5788 5789 5790 5791 5793 5793 5794 5795 5795 5795 5796 5797 5798 5798 5799 5799 5799 5800 5801 5801 5802 5802 5802 5802 5803 5803 5803 5804 5804 5804 5803 5803 5802 5802 5801 5800 5800 5801 5801 5801 5800 5801 5802 5803 5803 5804 5804 5804 5804 5804 5805 5807 5808 5808 5806 5805 5806 5807 5808 5810 5809 5809
5787 5788 5789 5791 5792 5792 5793 5794 5795 5795 5796 5797 5797 5797 5798 5798 5798 5799 5800 5800 5800 5801 5801 5801 5801 5802 5802 5802 5802 5802 5802 5802 5801 5800 5800 5799 5799 5799 5799 5799 5800 5800 5801 5801 5802 5803 5803 5804 5804 5804 5804 5806 5807 5806 5805 5804 5805 5806 5807 5808 5807 5808
5787 5788 5789 5790 5791 5791 5792 5794 5795 5795 5796 5796 5796 5797 5797 5797 5797 5798 5799 5799 5799 5799 5799 5800 5800 5800 5800 5800 5800 5800 5800 5800 5800 5800 5799 5799 5798 5798 5798 5798 5799 5799 5800 5800 5801 5802 5803 5803 5803 5804 5804 5804 5805 5806 5805 5804 5804 5805 5805 5806 5806 5806
5787 5788 5790 5790 5790 5790 5791 5792 5793 5794 5794 5795 5795 5795 5796 5797 5798 5799 5799 5799 5799 5799 5799 5799 5799 5799 5799 5798 5798 5798 5798 5799 5799 5799 5798 5798 5798 5798 5798 5798 5798 5798 5799 5800 5800 5802 5802 5802 5802 5803 5804 5804 5804 5804 5803 5803 5803 5804 5804 5805 5804 5805
5785 5786 5788 5788 5789 5789 5790 5791 5791 5792 5793 5793 5794 5794 5795 5797 5799 5799 5798 5798 5798 5798 5798 5797 5797 5797 5797 5796 5796 5796 5797 5797 5797 5797 5797 5797 5797 5797 5797 5797 5797 5797 5798 5798 5799 5801 5802 5802 5802 5802 5802 5802 5802 5802 5802 5802 5802 5803 5803 5803 5803 5804
5781 5782 5784 5785 5787 5787 5788 5789 5790 5791 5792 5792 5793 5794 5795 5797 5798 5798 5797 5797 5796 5796 5796 5796 5795 5795 5795 5795 5795 5795 5795 5795 5796 5796 5797 5797 5797 5797 5797 5797 5797 5797 5797 5797 5798 5799 5800 5801 5800 5800 5801 5801 5801 5801 5801 5801 5801 5801 5802 5802 5802 5803
5778 5778 5780 5782 5784 5785 5787 5788 5789 5790 5791 5792 5793 5793 5795 5795 5796 5795 5795 5795 5794 5794 5795 5794 5794 5794 5794 5793 5793 5793 5794 5794 5795 5795 5796 5796 5796 5797 5797 5796 5796 5796 5796 5796 5797 5798 5799 5799 5799 5800 5800 5801 5801 5800 5800 5800 5800 5800 5801 5801 5801 5802
5776 5777 5778 5780 5782 5783 5785 5786 5787 5788 5789 5790 5791 5792 5793 5793 5793 5793 5793 5793 5793 5793 5793 5793 5793 5793 5793 5792 5792 5792 5792 5793 5794 5794 5795 5795 5795 5795 5795 5795 5795 5795 5795 5795 5795 5796 5797 5798 5798 5799 5799 5800 5800 5799 5799 5799 5799 5799 5799 5800 5800 5800
5775 5777 5778 5779 5780 5782 5783 5784 5785 5786 5787 5787 5788 5790 5791 5791 5791 5792 5792 5792 5792 5791 5791 5792 5792 5791 5791 5790 5790 5790 5791 5792 5793 5793 5794 5794 5794 5794 5794 5794 5794 5793 5793 5794 5794 5794 5795 5796 5796 5797 5797 5798 5798 5798 5797 5797 5798 5798 5798 5798 5799 5799
5775 5776 5777 5778 5779 5780 5782 5783 5784 5785 5786 5787 5787 5788 5789 5789 5789 5790 5790 5791 5791 5791 5791 5790 5790 5789 5789 5789 5789 5790 5790 5790 5791 5792 5792 5792 5792 5792 5792 5792 5792 5791 5791 5792 5792 5793 5793 5793 5794 5795 5795 5795 5796 5795 5796 5796 5797 5797 5797 5797 5798 5798
5773 5774 5776 5777 5778 5779 5781 5781 5782 5783 5785 5785 5786 5787 5787 5788 5788 5788 5789 5790 5790 5790 5789 5789 5788 5788 5788 5788 5788 5788 5788 5788 5788 5789 5789 5790 5790 5790 5790 5790 5790 5790 5789 5789 5790 5791 5791 5791 5792 5792 5793 5793 5793 5793 5794 5794 5795 5795 5796 5796 5797 5797
5771 5773 5774 5775 5777 5778 5779 5779 5779 5780 5782 5783 5784 5785 5786 5786 5787 5787 5788 5788 5789 5789 5789 5788 5787 5787 5787 5787 5786 5786 5786 5786 5786 5786 5787 5787 5787 5788 5787 5787 5787 5787 5788 5788 5788 5789 5789 5789 5790 5790 5790 5790 5790 5791 5792 5792 5792 5793 5794 5795 5795 5795
5770 5771 5772 5773 5774 5775 5776 5777 5777 5778 5780 5781 5782 5783 5784 5785 5785 5785 5786 5787 5787 5787 5788 5787 5786 5786 5786 5785 5785 5784 5784 5784 5784 5784 5784 5784 5785 5785 5785 5785 5785 5785 5786 5786 5786 5787 5787 5787 5787 5787 5788 5788 5788 5789 5789 5790 5790 5791 5792 5792 5793 5793
5768 5769 5770 5771 5772 5773 5774 5775 5776 5777 5778 5779 5781 5781 5782 5782 5782 5783 5783 5784 5785 5785 5785 5785 5785 5784 5784 5784 5783 5782 5782 5782 5782 5782 5782 5782 5782 5782 5783 5783 5783 5783 5784 5784 5784 5785 5785 5785 5785 5785 5786 5786 5786 5787 5788 5788 5789 5789 5789 5790 5790 5790
5766 5767 5768 5770 5771 5772 5773 5774 5775 5776 5777 5778 5779 5779 5779 5779 5779 5780 5780 5781 5782 5782 5783 5783 5783 5783 5782 5782 5781 5780 5780 5780 5780 5780 5779 5779 5779 5779 5780 5780 5781 5781 5782 5782 5783 5783 5784 5784 5784 5784 5784 5784 5784 5785 5785 5786 5786 5787 5787 5788 5788 5788
5765 5766 5767 5769 5770 5771 5772 5772 5773 5774 5774 5775 5776 5777 5776 5776 5776 5777 5778 5779 5779 5780 5781 5781 5781 5781 5780 5780 5779 5778 5778 5778 5778 5778 5777 5777 5777 5777 5777 5777 5778 5778 5779 5780 5781 5782 5782 5782 5782 5782 5782 5782 5782 5782 5782 5783 5784 5784 5785 5785 5785 5786
5766 5767 5767 5768 5769 5769 5770 5770 5771 5772 5772 5773 5774 5774 5774 5774 5775 5775 5776 5776 5777 5778 5779 5779 5779 5779 5779 5778 5777 5776 5776 5776 5776 5776 5775 5775 5775 5775 5775 5775 5775 5776 5777 5778 5779 5780 5780 5781 5780 5780 5780 5780 5780 5780 5780 5780 5781 5782 5782 5783 5783 5784
5766 5766 5766 5767 5767 5767 5768 5768 5769 5770 5771 5771 5772 5772 5772 5773 5773 5773 5774 5774 5775 5776 5776 5777 5778 5778 5777 5776 5775 5774 5774 5774 5774 5773 5773 5773 5773 5773 5773 5773 5773 5774 5775 5776 5777 5778 5778 5778 5778 5778 5778 5778 5778 5778 5778 5778 5779 5780 5780 5781 5781 5781